Regional Weather Roundup
Issued by NWS

Home | Current Version | Previous Version | Text Only | Print | Product List | Glossary Off
Versions: 1 2 3 4 5 6 7 8 9 10 11 12 13 14 15 16 17 18 19 20 21 22 23 24 25 26 27 28 29 30 31 32 33 34 35 36 37 38 39 40 41 42 43 44 45 46 47 48 49 50

000
ASUS43 KMPX 040610
RWRMN
WEATHER ROUNDUP FOR MINNESOTA
NATIONAL WEATHER SERVICE TWIN CITIES/CHANHASSEN MN
100 AM CDT MON MAY 04 2015


NOTE: "FAIR" INDICATES FEW OR NO CLOUDS BELOW 12,000 FEET WITH NO
SIGNIFICANT WEATHER AND/OR OBSTRUCTIONS TO VISIBILITY. N/A MEANS
CURRENT SKY AND/OR WEATHER CONDITIONS ARE NOT AVAILABLE.

MNZ060>063-068>070-040700-
   Twin Cities Metro

CITY           SKY/WX    TMP DP  RH WIND       PRES   REMARKS
TWIN CITIES    CLOUDY    58  47  66 NW6       29.97R
6HR MIN TEMP:  58; 6HR MAX TEMP:  66; 6HR PCP:  0.04;

ST PAUL        PTCLDY    58  47  66 W3        29.97R
CRYSTAL        PTCLDY    55  45  68 NW6       29.97R
BLAINE         PTCLDY    54  45  71 NW5       29.98R
LAKEVILLE      PTCLDY    54  46  76 NW3       29.96R
EDEN PRAIRIE   PTCLDY    57  44  62 NW8       29.96R
6HR MIN TEMP:  57; 6HR MAX TEMP:  64; 6HR PCP: TRACE;

SOUTH ST PAUL  PTCLDY    58  45  61 N5        29.96R
LAKE ELMO      FAIR      52  46  82 CALM      29.97R
$$
MNZ001>005-007-008-013>017-022>024-027-028-040700-
   Northwest Minnesota

CITY           SKY/WX    TMP DP  RH WIND       PRES   REMARKS
BEMIDJI        CLEAR     40  31  68 CALM      30.05R
HALLOCK        CLEAR     43  30  61 N7        30.06R
ROSEAU         CLEAR     43  36  75 CALM      30.05R
WARROAD        CLEAR     43  37  81 NW6       30.05R
THIEF RVR FALL CLEAR     45  34  65 CALM      30.05R
CROOKSTON      PTCLDY    39  25  56 CALM      30.06R
DETROIT LAKES  CLEAR     50  30  46 NE3       30.05R
MOORHEAD       FAIR      45  25  45 N7        30.06R
PARK RAPIDS    CLEAR     50  29  44 N3        30.03R
MAHNOMEN       FAIR      47  30  50 E3        30.05R
$$
MNZ006-009>011-018-025>026-040700-
   North Central Minnesota

CITY           SKY/WX    TMP DP  RH WIND       PRES   REMARKS
BAUDETTE       CLEAR     40  35  83 CALM      30.03R
FLAG ISLAND    CLEAR     46  41  81 NW12      30.02R
INTL FALLS     CLEAR     37  33  85 CALM      30.02R
6HR MIN TEMP:  37; 6HR MAX TEMP:  63;

WASKISH        CLEAR     37  32  81 CALM      30.04R
BIG FORK       CLEAR     39  32  75 CALM      30.03R
LONGVILLE      CLEAR     45  34  65 CALM      30.03R
GRAND RAPIDS   CLEAR     50  30  46 N6        30.03R
CRANE LAKE     CLEAR     39  34  81 CALM      30.03R
ORR            CLEAR     46  34  61 NW5       29.99R
COOK           CLEAR     43  34  70 CALM      30.02R
WALKER         FAIR      47  32  55 CALM      30.04R
$$
MNZ012-019>021-037-040700-
   Northeast Minnesota

CITY           SKY/WX    TMP DP  RH WIND       PRES   REMARKS
DULUTH         CLEAR     52  30  43 N8        29.98R
6HR MIN TEMP:  51; 6HR MAX TEMP:  66;

ELY            CLEAR     45  32  61 NW3       29.99R
HIBBING        CLEAR     41  29  62 NW10      30.01R
EVELETH        CLEAR     52  34  50 NW7       30.00S
DULUTH HARBOR  PTCLDY    54  36  50 NW16G22   29.97R
TWO HARBORS    PTCLDY    55  36  47 N7        29.95R
SILVER BAY     PTCLDY    54  30  40 NW7       29.94R
GRAND MARAIS     N/A     56  30  37 N9G21     29.91R
G MARAIS ARPRT MOCLDY    48  28  46 NW10      29.94R
$$
MNZ029>031-032-039>041-046>048-054>057-064-040700-
   West Central Minnesota

CITY           SKY/WX    TMP DP  RH WIND       PRES   REMARKS
FERGUS FALLS   CLEAR     50  27  40 CALM      30.06R
WHEATON        CLEAR     46  25  42 NW3       30.08R
MORRIS         FAIR      46  27  46 NW8       30.04R
ALEXANDRIA     CLEAR     46  34  62 NW6       30.04R
ELBOW LAKE     FAIR      51  31  47 N6        30.04R
WADENA         CLEAR     46  28  49 N5        30.04R
GLENWOOD       CLEAR     46  36  66 NW7       30.04R
APPLETON       CLEAR     46  28  49 N7        30.03S
BENSON         CLEAR     43  32  65 N5        30.03S
ORTONVILLE     CLEAR     46  30  53 NW5       30.05R
MADISON        CLEAR     45  28  53 W6        30.05R
WILLMAR        FAIR      46  36  66 NW6       30.03R
$$
MNZ033>034-036-042>043-049>051-058-059-040700-
   Central Minnesota

CITY           SKY/WX    TMP DP  RH WIND       PRES   REMARKS
ST CLOUD       CLEAR     50  34  54 N5        29.99R
6HR MIN TEMP:  44; 6HR MAX TEMP:  68;

SAUK CENTRE    FAIR      42  33  68 NW6       30.03R
PAYNESVILLE    CLEAR     49  31  50 W5        30.02R
AITKIN         CLEAR     43  30  61 N5        30.00R
PINE RIVER     CLEAR     43  30  61 N3        30.06R
BRAINERD       CLEAR     46  40  79 N3        30.02R
STAPLES        CLEAR     45  32  61 CALM      30.03R
LONG PRAIRIE   FAIR      43  32  65 NW3       30.03R
LITTLE FALLS   CLEAR     41  34  75 CALM      30.02R
LITCHFIELD     CLEAR     55  32  41 NW6       30.01R
BUFFALO        PTCLDY    54  42  63 NW3       30.00R
MAPLE LAKE     CLEAR     48  43  82 CALM      30.01R
$$
MNZ037-044-045-052-053-040700-
   East Central Minnesota

CITY           SKY/WX    TMP DP  RH WIND       PRES   REMARKS
PRINCETON      CLEAR     45  37  76 NW3       29.99R
MORA           CLEAR     45  32  61 CALM      30.00R
CAMBRIDGE      CLEAR     52  39  62 NW3       29.96R
RUSH CITY      MOCLDY    46  42  84 CALM      29.98R
MOOSE LAKE     CLEAR     50  30  46 N7        29.98R
HINCKLEY       FAIR      50  36  57 NW6       29.98R
CLOQUET        CLEAR     50  28  43 N10       29.99R
MCGREGOR       CLEAR     45  32  61 N5        30.01R
$$
MNZ071>073-080-081-089-090-097-098-040700-
   Southwest Minnesota

CITY           SKY/WX    TMP DP  RH WIND       PRES   REMARKS
MONTEVIDEO     CLEAR     48  32  53 N8        30.03S
GRANITE FALLS  CLEAR     50  29  43 NW9       30.03R
CANBY          PTCLDY    42  31  65 NW8       30.05S
MARSHALL       PTCLDY    48  27  43 N7        30.02R
REDWOOD FALLS  PTCLDY    56  32  40 NW7       30.00R
OLIVIA         CLEAR     50  30  46 N7        30.00R
PIPESTONE      MOCLDY    55  27  33 NE7       30.02R
WINDOM         PTCLDY    55  30  38 N10       29.99R
WORTHINGTON    MOCLDY    55  28  35 N9        30.01R
JACKSON        PTCLDY    54  37  54 N6        30.00R
TRACY          CLEAR     54  28  36 N9        30.01S
SLAYTON        MOCLDY    52  28  39 CALM      30.02R
$$
MNZ065>067-074>077-082>085-091>093-040700-
   South Central Minnesota

CITY           SKY/WX    TMP DP  RH WIND       PRES   REMARKS
MANKATO          N/A    N/A N/A N/A MISG        N/A
NEW ULM        PTCLDY    57  34  41 N12       29.97R
ST JAMES       PTCLDY    59  36  41 N7        29.99R
FAIRMONT       MOCLDY    55  39  54 N8        29.97R
GLENCOE        PTCLDY    57  40  53 N6        29.98R
FARIBAULT      PTCLDY    55  48  76 NW3       29.97R
OWATONNA       PTCLDY    54  50  87 N5        29.96R
WASECA         PTCLDY    54  48  82 N9        29.97R
ALBERT LEA     MOCLDY    57  52  82 N5        29.95R
$$
MNZ078>079-086>088-094>096-040700-
   Southeast Minnesota

CITY           SKY/WX    TMP DP  RH WIND       PRES   REMARKS
ROCHESTER      CLOUDY    56  54  93 NW7       29.95R
6HR MIN TEMP:  56; 6HR MAX TEMP:  78; 6HR PCP:  0.66;

RED WING       CLOUDY    55  52  88 NW3       29.95R
STANTON        PTCLDY    53  48  84 CALM      29.95R
DODGE CENTER   MOCLDY    55  54  94 N8        29.94R
WINONA         CLOUDY    59  57  94 NW3       29.92R
AUSTIN         CLOUDY    57  54  88 N6        29.93S
PRESTON        CLOUDY    56  55  94 S3        29.92R
$$
ABBREVIATIONS USED IN REMARKS
   TC - TEMPERATURES IN CELSIUS
  WCI - WIND CHILL INDEX
   HX - HEAT INDEX
  VSB - VISIBILITY
$$


USA.gov is the U.S. government's official web portal to all federal, state and local government web resources and services.